Weather observations for the past three days for
Hastings, Hastings Municipal Airport
Metric (Imperial)
Date Time (cdt) Wind (kph) Vis. (km) Weather Sky Cond. Temperature (ºC) Relative Humidity Wind Chill (°C) Heat Index (°C) Pressure Precipitation (cm)
Air Dwpt 6 hour altimeter (cm) sea level (mb) 1 hr 3 hr 6 hr
Max. Min.
16 07:53 S 22 G 35 16.09 Fair CLR 22.8 18.9 79% 75.46 1004.0
16 06:53 S 20 16.09 Fair CLR 21.1 18.9 22.2 20.6 87% 75.41 1003.5
16 05:53 S 20 G 35 16.09 Fair CLR 21.1 18.9 87% 75.41 1003.1
16 04:53 S 20 G 39 16.09 Fair CLR 21.1 18.9 87% 75.39 1002.9
16 03:53 S 15 16.09 Fair CLR 20.6 18.9 90% 75.44 1003.7
16 02:53 S 17 16.09 Fair CLR 21.1 18.9 87% 75.49 1004.3
16 01:53 S 20 16.09 Fair CLR 21.1 18.9 87% 75.51 1004.9
16 00:53 S 22 16.09 Fair CLR 22.2 18.3 29.4 22.2 79% 75.54 1005.1
15 23:53 SE 28 G 46 16.09 Fair CLR 22.8 17.8 74% 75.51 1004.8
15 22:53 S 20 16.09 Fair CLR 23.9 18.3 71% 25 75.51 1005.0
15 21:53 S 24 G 39 16.09 Fair CLR 25.6 18.9 67% 27 75.46 1004.3
15 20:53 S 20 16.09 Fair CLR 26.7 16.7 54% 27 75.41 1003.5
15 19:53 S 13 G 30 16.09 Fair CLR 28.3 16.7 49% 29 75.39 1003.3
15 18:53 S 15 G 43 16.09 Fair CLR 29.4 16.1 31.1 27.2 45% 30 75.41 1003.7
15 17:53 S 20 G 37 16.09 Fair CLR 31.1 17.8 45% 32 75.49 1004.3
15 16:53 S 26 G 43 16.09 Mostly Cloudy BKN070 30.6 17.8 46% 31 75.51 1005.0
15 15:53 S 31 G 44 16.09 Partly Cloudy SCT050 30.6 20 53% 33 75.59 1005.8
15 14:53 S 30 G 50 16.09 A Few Clouds FEW039 29.4 21.7 63% 32 75.62 1006.3
15 13:53 S 31 G 48 16.09 A Few Clouds FEW037 28.9 19.4 57% 30 75.67 1007.0
15 12:53 S 30 G 43 16.09 A Few Clouds FEW026 FEW034 27.8 21.1 27.8 18.9 67% 30 75.74 1008.1 0.03
15 11:53 S 28 G 43 16.09 Fair CLR 27.2 20.6 67% 29 75.82 1008.6
15 10:53 S 20 G 35 16.09 Mostly Cloudy BKN009 BKN015 23.9 21.1 84% 24 75.84 1009.4
15 09:53 SE 22 G 37 16.09 Overcast OVC004 21.1 20 93% 75.87 1009.8 0.03
15 08:53 SE 19 G 31 16.09 Overcast BKN006 OVC012 20 18.9 93% 75.92 1010.6
15 07:53 SE 17 16.09 Overcast SCT007 OVC015 19.4 18.3 93% 75.97 1011.1 0.03
15 06:53 S 17 16.09 Overcast FEW005 OVC085 18.9 18.3 19.4 18.9 96% 76 1011.4 0.99
15 05:53 SE 17 16.09 Overcast BKN005 OVC085 18.9 18.3 96% 75.97 1011.1
15 04:53 S 20 G 33 16.09 Mostly Cloudy BKN009 BKN100 BKN120 19.4 18.3 93% 76.02 1011.7 0.05
15 03:53 SE 9 16.09 Light Rain FEW100 BKN120 19.4 18.9 97% 76 1011.3 0.18 0.94
15 02:53 E 20 16.09 Light Rain BKN110 19.4 18.9 97% 76 1011.6 0.15
15 01:53 SE 17 11.27 Thunderstorm in Vicinity Rain FEW006 BKN090 OVC110 19.4 18.9 97% 76.15 1013.4 0.61
15 00:53 Vrbl 9 G 30 1.61 Thunderstorm Heavy Rain Fog/Mist OVC022 19.4 18.9 28.9 18.9 97% 76.2 1014.2 2.34 2.34
14 23:53 SE 17 G 35 16.09 Partly Cloudy FEW060 SCT090 25 18.9 69% 26 76.15 1013.2
14 22:53 SE 22 G 37 16.09 Fair CLR 25.6 17.8 62% 27 76.12 1012.8
14 21:53 SE 15 G 31 16.09 Fair CLR 26.1 18.9 65% 27 76.12 1012.9
14 20:53 E 20 G 35 16.09 Fair CLR 26.7 19.4 64% 28 76.07 1012.2
14 19:53 E 19 G 37 16.09 Fair CLR 27.8 20 63% 29 76.12 1012.9
14 18:53 SE 24 G 43 16.09 Fair CLR 28.9 20 30 28.3 59% 31 76.1 1013.1
14 17:53 E 24 G 41 16.09 Fair CLR 29.4 19.4 55% 31 76.15 1013.4
14 16:53 SE 11 G 39 16.09 A Few Clouds FEW049 29.4 18.3 51% 30 76.25 1014.7
14 15:53 E 20 16.09 Fair CLR 30 16.1 43% 30 76.25 1014.9
14 14:53 E 19 G 30 16.09 Fair CLR 28.9 15.6 44% 29 76.33 1016.0
14 13:53 SE 17 G 37 16.09 Fair CLR 28.3 13.3 40% 28 76.38 1016.3
14 12:53 SE 24 G 41 16.09 Fair CLR 28.9 13.3 29.4 17.8 38% 28 76.43 1017.3
14 11:53 SE 17 G 39 16.09 Fair CLR 28.3 12.2 37% 28 76.45 1017.5
14 10:53 E 19 G 41 16.09 Fair CLR 27.2 12.8 41% 27 76.45 1017.4
14 09:53 E 26 G 43 16.09 Fair CLR 25.6 11.7 42% 26 76.48 1017.8
14 08:53 E 24 16.09 Fair CLR 23.9 11.7 46% 25 76.45 1017.6
14 07:53 E 17 16.09 A Few Clouds FEW055 21.7 11.1 51% 76.5 1018.3
14 06:53 NE 7 11.27 A Few Clouds FEW055 17.8 11.1 21.7 17.2 65% 76.5 1018.4
14 05:53 E 7 16.09 Fair CLR 18.3 8.9 54% 76.43 1017.1
14 04:53 E 11 16.09 Fair CLR 18.3 9.4 56% 76.38 1016.3
14 03:53 NE 9 16.09 Fair CLR 19.4 9.4 53% 76.38 1016.5
14 02:53 E 11 16.09 Overcast OVC055 21.1 9.4 47% 76.43 1016.9
14 01:53 NE 15 16.09 Partly Cloudy SCT050 21.1 11.7 55% 76.35 1016.0
14 00:53 NE 11 16.09 A Few Clouds FEW050 20.6 14.4 28.9 20 68% 76.33 1015.6
13 23:53 NE 7 16.09 Fair CLR 21.1 15 68% 76.33 1015.6
13 22:53 E 7 16.09 Fair CLR 21.7 15 66% 76.3 1015.3
13 21:53 E 11 16.09 Fair CLR 23.9 14.4 55% 25 76.23 1014.2
13 20:53 NE 13 16.09 Fair CLR 25.6 14.4 50% 26 76.15 1013.2
13 19:53 NE 24 G 37 16.09 Fair CLR 27.8 13.9 43% 28 76.07 1012.1
13 18:53 NE 26 G 48 16.09 Fair CLR 28.9 14.4 32.8 28.9 41% 29 76 1011.4
13 17:53 NE 28 G 44 16.09 Fair CLR 30 15.6 42% 30 76 1011.2
13 16:53 E 35 G 52 16.09 Fair and Breezy CLR 31.1 16.1 40% 31 76.02 1011.5
13 15:53 NE 37 G 54 16.09 Fair and Breezy CLR 31.1 16.7 42% 31 76 1011.2
13 14:53 E 26 G 50 16.09 Fair CLR 32.2 20 48% 34 75.97 1010.6
13 13:53 NE 30 G 43 16.09 Fair CLR 31.7 19.4 48% 33 75.92 1009.9
13 12:53 NE 22 G 37 16.09 Fair CLR 31.1 20 32.8 21.7 52% 33 75.9 1009.5
13 11:53 N 17 G 33 16.09 Fair CLR 31.7 17.2 42% 32 75.79 1008.3
13 10:53 NW 19 16.09 Fair CLR 31.7 17.2 42% 32 75.77 1007.7
13 09:53 SW 11 16.09 Fair CLR 28.9 18.9 55% 30 75.72 1007.0
13 08:53 SW 17 G 30 16.09 Fair CLR 25.6 18.9 67% 27 75.64 1006.3
Date Time (cdt) Wind (kph) Vis. (km) Weather Sky Cond. Air Dwpt Max. Min. Relative Humidity Wind Chill (°C) Heat Index (°C) altimeter (cm) sea level (mb) 1 hr 3 hr 6 hr
6 hour
Temperature (ºC) Pressure Precipitation (cm)